Simultaneous Nadir Overpasses (SNOs) Predictions

Prediction of SNOs near US between AQUA and NPP Satellite Orbit:

Table of predicted SNOs near US for the next 10.0 days since TLE Epoch: 3/12/2017
Index Date (AQUA) Time (AQUA) AQUA Lat,Lon Date (NPP) Time (NPP) NPP Lat,Lon Distance(km) Time Diff (sec)
1 03/13/2017 09:24:44 20.23,-114.23 03/13/2017 09:16:27 20.29,-114.64 43.97 497
2 03/16/2017 06:31:00 45.20, -65.51 03/16/2017 06:30:37 45.52, -67.47 157.43 23
3 03/16/2017 08:08:34 49.90, -88.40 03/16/2017 08:10:43 50.35, -90.82 180.19 129
4 03/16/2017 09:47:27 49.91,-113.12 03/16/2017 09:52:10 50.52,-116.12 224.52 283
5 03/18/2017 19:06:47 49.98, -92.61 03/18/2017 19:00:58 49.68, -94.37 130.77 349
6 03/18/2017 20:45:40 49.97,-117.33 03/18/2017 20:42:26 49.57,-119.70 176.01 194




NCC Satellite Simultaneous Nadir Overpasses (SNOs) Prediction Service
